Warning: Javascript must be enabled to use all the features on this page!


Page Loading - Please Wait...

* We've detected you're using a mobile device. Find our Next Generation Station Page here.
Click to hideNews Bulletins

Peak Streamflow for the Nation

USGS 06605000 Ocheyedan River near Spencer, IA

Clay County, Iowa
Hydrologic Unit Code 10230003
Latitude  43°07'41", Longitude  95°12'38" NAD27
Drainage area 426  square miles
Gage datum 1,311.66 feet above NGVD29
Output formats
Table
Graph
Tab-separated file
peakfq (watstore) format
Reselect output format
Water
Year
Date Gage
Height
(feet)
Stream-
flow
(cfs)
1953 1953-06-18 12.89 26,0007
1969 1969-04-08 11.205 12,0007
1978 1978-07-23 9.25 3,200
1979 1979-05-11 9.54 3,960
1980 1979-11-02 8.93 2,300
1981 1981-06-15 6.75 1,180
1982 1982-07-10 9.68 4,520
1983 1983-06-21 10.49 6,450
1984 1984-06-22 10.15 5,200
1985 1985-04-24 9.60 3,500
1986 1986-03-19 9.73 4,710
1987 1987-09-18 9.31 3,230
1988 1988-03-02 6.271 6792
1989 1989-03-24 6.15 903
1990 1990-06-18 6.44 999
1991 1991-04-14 8.30 1,900
1992 1992-04-22 7.82 1,600
1993 1993-07-01 11.28 6,170
1994 1994-06-24 10.70 4,490
1995 1995-05-14 9.13 2,220
1996 1996-03-30 8.16 1,640
1997 1997-03-22 9.45 3,280
1998 1998-04-27 5.17 685
1999 1999-06-06 8.68 1,920
2000 2000-06-14 5.08 642
2001 2001-06-15 11.23 6,040
2002 2002-06-12 5.86 860
2003 2003-06-26 5.32 707
2004 2004-09-23 9.472 2,560
2005 2005-05-16 9.475 2,5702
2006 2006-05-02 9.72 2,910
2007 2007-03-14 11.36 5,150
2008 2008-06-13 8.79 1,990
2009 2009-02-12 9.631 1,8102
2010 2010-03-15 11.542 6,880
2011 2011-07-15 11.51 4,710
2012 2012-05-30 8.89 1,860
2013 2013-05-27 9.86 3,130
2014 2014-06-19 11.48 5,240
2015 2015-03-11 4.232 430
2016 2016-05-01 9.73 2,990
2017 2017-05-22 9.15 2,260
2018 2018-09-21 12.77 8,200
2019 2019-03-15 12.712 7,1302
2020 2020-05-27 8.57 1,920
2021 2021-04-09 3.052,N 203
?
  Peak Gage-Height Qualification Codes.
?
  Peak Streamflow Qualification Codes.